Regional Weather Roundup
Issued by NWS

Home | Current Version | Previous Version | Text Only | Print | Product List | Glossary Off
Versions: 1 2 3 4 5 6 7 8 9 10 11 12 13 14 15 16 17 18 19 20 21 22 23 24 25 26 27 28 29 30 31 32 33 34 35 36 37 38 39 40 41 42 43 44 45 46 47 48 49 50

000
ASUS43 KIND 231209
RWRIN

WEATHER ROUNDUP FOR INDIANA
NATIONAL WEATHER SERVICE INDIANAPOLIS IN
800 AM EDT FRI JUN 23 2017

NOTE: "FAIR" INDICATES FEW OR NO CLOUDS BELOW 12,000 FEET WITH NO
SIGNIFICANT WEATHER AND/OR OBSTRUCTIONS TO VISIBILITY.

* - STATION DOES NOT REPORT WEATHER SUCH AS PRECIPITATION OR FOG.

+ - STATION NOT QUALITY CONTROLLED BY THE NATIONAL WEATHER SERVICE.
    USE DATA WITH CAUTION...ESPECIALLY DEWPOINT AND RELATIVE
    HUMIDITY OBSERVATIONS.

INZ001>003-010>013-019-020-231300-
NORTHWEST INDIANA

CITY           SKY/WX    TMP DP  RH WIND       PRES   REMARKS
GARY /AIRPORT/ LGT RAIN  68  64  88 CALM      29.67F
KNOX *+        CLOUDY    66  66 100 NW20G30   29.71R
LA PORTE +     LGT RAIN  66  64  96 W9        29.71R
6HR MIN TEMP:  65; 6HR MAX TEMP:  72; 6HR PCP:  0.18;

MICHIGAN CITY+ LGT RAIN  64  64 100 CALM      29.70S
MONTICELLO +   CLOUDY    74  72  95 W6        29.68R
6HR MIN TEMP:  71; 6HR MAX TEMP:  74; 6HR PCP:  1.08;

RENSSELAER +   HVY RAIN  73  70  88 W22G30    29.70R
VALPARAISO     LGT RAIN  67  66  97 N7        29.67R FOG
6HR MIN TEMP:  67; 6HR MAX TEMP:  76; 6HR PCP:  0.53;


$$

LMZ046-743>745-231300-
SOUTHERN LAKE MICHIGAN

STATION/POSITION TIME  TEMP    WIND        PRES    WAVE
                       AIR SEA DIR/SP/G            HT
                 (UTC) (F)     (DEG/KT/KT) (MB)    (FT)
BURNS HARBOR     1140   66     340/  3/ 10 1005.8R
MICHIGAN CITY    1140   65     280/  3/  4   N/A
5NW MICH CITY    1200   65 67  170/  2/  6   N/A     1

$$

INZ004-005-014>016-021>024-231300-
NORTH CENTRAL INDIANA

CITY           SKY/WX    TMP DP  RH WIND       PRES   REMARKS
ELKHART        HVY RAIN  72  70  94 W17G25    29.66R
GOSHEN         LGT RAIN  73  70  90 SW7       29.64F
6HR MIN TEMP:  71; 6HR MAX TEMP:  73; 6HR PCP:  0.14;

LOGANSPORT +   LGT RAIN  70  68  94 SW12      29.69R
PERU/GRISSOM   LGT RAIN  74  74 100 W12       29.68R
6HR MIN TEMP:  71; 6HR MAX TEMP:  74; 6HR PCP:  4.43;

ROCHESTER +    CLOUDY    73  73 100 W10       29.68R THUNDER FOG
SOUTH BEND     PTSUNNY   67  66  97 NW15      29.68R
6HR MIN TEMP:  67; 6HR MAX TEMP:  73; 6HR PCP:  0.06;

WARSAW +       HVY RAIN  72  70  94 SW5       29.66R

$$

INZ006>009-017-018-025>027-231300-
NORTHEAST INDIANA

CITY           SKY/WX    TMP DP  RH WIND       PRES   REMARKS
AUBURN +       LGT RAIN  72  70  94 SW7       29.67F
FORT WAYNE     TSTM      71  68  90 SW9       29.68S FOG
6HR MIN TEMP:  71; 6HR MAX TEMP:  73; 6HR PCP:  1.35;

HUNTINGTON +   CLOUDY    69  68  96 W5        29.69R
6HR MIN TEMP:  68; 6HR MAX TEMP:  72; 6HR PCP:  0.85;

KENDALLVILLE + RAIN      71  71 100 SW9       29.66F

$$

INZ028-029-035-036-043>045-051>053-231300-
WEST CENTRAL INDIANA

CITY           SKY/WX    TMP DP  RH WIND       PRES   REMARKS
CRAWFORDSVL +  DRIZZLE   73  73 100 SW10      29.70F
6HR MIN TEMP:  70; 6HR MAX TEMP:  73;

GREENCASTLE +  CLOUDY    73  72  94 CALM      29.72S FOG
LAFAYETTE      CLOUDY    75  74  96 SW5       29.68R
6HR MIN TEMP:  72; 6HR MAX TEMP:  75; 6HR PCP:  1.10;

TERRE HAUTE    LGT RAIN  76  72  87 SW9       29.71S
6HR MIN TEMP:  74; 6HR MAX TEMP:  76; 6HR PCP:  0.02;


$$

INZ030>032-037>040-046>048-054>057-064-065-231300-
CENTRAL INDIANA

CITY           SKY/WX    TMP DP  RH WIND       PRES   REMARKS
CP ATTERBURY + HVY RAIN  73  72  94 SW9       29.74R
COLUMBUS       LGT RAIN  73  72  94 S9        29.74S
FRANKFORT +    CLOUDY    77  74  91 W10G18    29.71S
6HR MIN TEMP:  74; 6HR MAX TEMP:  78; 6HR PCP:  0.02;

GREENWOOD *+   CLOUDY    76  71  84 SW8       29.73F
INDIANAPOLIS   CLOUDY    75  73  93 SW12      29.71S
6HR MIN TEMP:  72; 6HR MAX TEMP:  76; 6HR PCP:  0.03;

-EAGLE CREEK   CLOUDY    75  72  90 SW8       29.71S
6HR MIN TEMP:  73; 6HR MAX TEMP:  76; 6HR PCP:  0.09;

KOKOMO +       CLOUDY    76  72  87 SW17G23   29.70S
6HR MIN TEMP:  72; 6HR MAX TEMP:  76; 6HR PCP:  0.03;

MARION +       CLOUDY    73  72  94 SW14G20   29.70S
MT COMFORT *+  CLOUDY    75  72  88 SW10      29.72S
SHELBYVILLE    CLOUDY    77  71  82 SW10      29.72S
6HR MIN TEMP:  73; 6HR MAX TEMP:  77;

ZIONSVILLE +   CLOUDY    74  72  94 SW13      29.72S
6HR MIN TEMP:  70; 6HR MAX TEMP:  74; 6HR PCP:  0.25;


$$

INZ033-034-041-042-049-050-058-059-231300-
EAST CENTRAL INDIANA

CITY           SKY/WX    TMP DP  RH WIND       PRES   REMARKS
MUNCIE         LGT RAIN  75  72  90 W10       29.71R
6HR MIN TEMP:  72; 6HR MAX TEMP:  75; 6HR PCP:  1.56;

RICHMOND +     LGT RAIN  72  70  94 SW13      29.76S

$$

INZ060-061-067>069-081>083-085>088-231300-
SOUTHWEST INDIANA

CITY           SKY/WX    TMP DP  RH WIND       PRES   REMARKS
EVANSVILLE     CLOUDY    75  72  90 S9        29.75S
6HR MIN TEMP:  74; 6HR MAX TEMP:  76; 6HR PCP:  0.47;

HUNTINGBURG *+ LGT RAIN  75  73  93 S12       29.77S
6HR MIN TEMP:  74; 6HR MAX TEMP:  75; 6HR PCP:  0.02;

WASHINGTON +   CLOUDY    74  73  94 S9        29.74S
6HR MIN TEMP:  73; 6HR MAX TEMP:  75; 6HR PCP:  0.09;


$$

INZ062-063-066-070>080-084-089>092-231300-
SOUTH CENTRAL AND SOUTHEAST INDIANA

CITY           SKY/WX    TMP DP  RH WIND       PRES   REMARKS
BEDFORD +      CLOUDY    73  70  88 S7        29.75
BLOOMINGTON    LGT RAIN  75  71  87 SW10      29.74S
6HR MIN TEMP:  74; 6HR MAX TEMP:  76; 6HR PCP:  0.02;

MADISON *+     CLOUDY    73  72  94 S12       29.80S
NORTH VERNON + CLOUDY    73  72  94 S13       29.76
SEYMOUR +      CLOUDY    75  73  94 SW9       29.75

$$




USA.gov is the U.S. government's official web portal to all federal, state and local government web resources and services.